Time,TemperatureF,DewpointF,PressureIn,WindDirection,WindDirectionDegrees,WindSpeedMPH,WindSpeedGustMPH,Humidity,HourlyPrecipIn,Conditions,Clouds,dailyrainin,SoftwareType,DateUTC
2013-05-27 00:13:00,34.5,34.2,29.83,ESE,112,0.0,-999.0,99,-99.99,,,0.00,Acu-Link.com,2013-05-27 04:13:00,
2013-05-27 03:19:00,31.1,30.9,29.86,ESE,112,0.0,-999.0,99,-99.99,,,0.00,Acu-Link.com,2013-05-27 07:19:00,
2013-05-27 03:37:00,30.2,30.0,29.88,ESE,112,0.0,-999.0,99,-99.99,,,0.00,Acu-Link.com,2013-05-27 07:37:00,
2013-05-27 03:55:00,29.8,29.6,29.85,ESE,112,0.0,-999.0,99,-99.99,,,0.00,Acu-Link.com,2013-05-27 07:55:00,
2013-05-27 04:10:00,29.7,29.5,29.85,ESE,112,0.0,-999.0,99,-99.99,,,0.00,Acu-Link.com,2013-05-27 08:10:00,
2013-05-27 04:25:00,29.7,29.5,29.87,ESE,112,0.0,-999.0,99,-99.99,,,0.00,Acu-Link.com,2013-05-27 08:25:00,
2013-05-27 04:41:00,29.7,29.5,29.88,ESE,112,0.0,-999.0,99,-99.99,,,0.00,Acu-Link.com,2013-05-27 08:41:00,
2013-05-27 05:07:00,29.3,29.1,29.87,ESE,112,0.0,-999.0,99,-99.99,,,0.00,Acu-Link.com,2013-05-27 09:07:00,
2013-05-27 05:22:00,29.1,28.9,29.87,ESE,112,0.0,-999.0,99,-99.99,,,0.00,Acu-Link.com,2013-05-27 09:22:00,
2013-05-27 05:42:00,29.1,28.9,29.88,ESE,112,0.0,-999.0,99,-99.99,,,0.00,Acu-Link.com,2013-05-27 09:42:00,
2013-05-27 05:57:00,29.5,29.3,29.89,ESE,112,0.0,-999.0,99,-99.99,,,0.00,Acu-Link.com,2013-05-27 09:57:00,
2013-05-27 06:12:00,29.8,29.6,29.90,ESE,112,0.0,-999.0,99,-99.99,,,0.00,Acu-Link.com,2013-05-27 10:12:00,
2013-05-27 06:46:00,30.9,30.7,29.93,ESE,112,0.0,-999.0,99,-99.99,,,0.00,Acu-Link.com,2013-05-27 10:46:00,
2013-05-27 07:04:00,32.2,32.0,29.93,ESE,112,0.0,-999.0,99,-99.99,,,0.00,Acu-Link.com,2013-05-27 11:04:00,
2013-05-27 07:19:00,33.3,33.0,29.92,ESE,112,0.0,-999.0,99,-99.99,,,0.00,Acu-Link.com,2013-05-27 11:19:00,
2013-05-27 07:34:00,35.2,34.9,29.91,NNE,22,0.0,-999.0,99,-99.99,,,0.00,Acu-Link.com,2013-05-27 11:34:00,
2013-05-27 07:54:00,37.0,36.7,29.92,SSE,157,0.0,-999.0,99,-99.99,,,0.00,Acu-Link.com,2013-05-27 11:54:00,
2013-05-27 08:09:00,44.2,43.9,29.93,South,180,0.0,-999.0,99,-99.99,,,0.00,Acu-Link.com,2013-05-27 12:09:00,
2013-05-27 08:26:00,47.8,43.2,29.91,North,0,0.0,-999.0,84,-99.99,,,0.00,Acu-Link.com,2013-05-27 12:26:00,
2013-05-27 08:42:00,49.6,42.4,29.89,SSW,202,0.0,-999.0,76,-99.99,,,0.00,Acu-Link.com,2013-05-27 12:42:00,
2013-05-27 08:59:00,52.7,42.1,29.91,SSE,157,3.7,-999.0,67,-99.99,,,0.00,Acu-Link.com,2013-05-27 12:59:00,
2013-05-27 09:15:00,53.6,40.5,29.91,North,0,5.3,-999.0,61,-99.99,,,0.00,Acu-Link.com,2013-05-27 13:15:00,
2013-05-27 09:30:00,55.6,41.1,29.91,SW,225,3.2,-999.0,58,-99.99,,,0.00,Acu-Link.com,2013-05-27 13:30:00,
2013-05-27 09:46:00,56.8,41.3,29.89,West,270,4.2,-999.0,56,-99.99,,,0.00,Acu-Link.com,2013-05-27 13:46:00,
2013-05-27 10:01:00,57.0,40.5,29.93,NNE,22,3.7,-999.0,54,-99.99,,,0.00,Acu-Link.com,2013-05-27 14:01:00,
2013-05-27 10:22:00,59.0,38.3,29.89,NW,315,4.7,-999.0,46,-99.99,,,0.00,Acu-Link.com,2013-05-27 14:22:00,
2013-05-27 10:42:00,59.0,37.1,29.90,ESE,112,4.7,-999.0,44,-99.99,,,0.00,Acu-Link.com,2013-05-27 14:42:00,
2013-05-27 10:57:00,60.4,38.4,29.93,NNW,337,5.3,-999.0,44,-99.99,,,0.00,Acu-Link.com,2013-05-27 14:57:00,
2013-05-27 11:12:00,61.7,38.4,29.93,NNW,337,3.7,-999.0,42,-99.99,,,0.00,Acu-Link.com,2013-05-27 15:12:00,
2013-05-27 11:28:00,60.3,38.3,29.88,NNE,22,2.2,-999.0,44,-99.99,,,0.00,Acu-Link.com,2013-05-27 15:28:00,
2013-05-27 11:43:00,62.4,35.8,29.88,South,180,6.3,-999.0,37,-99.99,,,0.00,Acu-Link.com,2013-05-27 15:43:00,
2013-05-27 12:01:00,63.0,38.3,29.87,West,270,4.2,-999.0,40,-99.99,,,0.00,Acu-Link.com,2013-05-27 16:01:00,
2013-05-27 12:18:00,63.0,38.3,29.90,SSW,202,6.8,-999.0,40,-99.99,,,0.00,Acu-Link.com,2013-05-27 16:18:00,
2013-05-27 12:34:00,62.8,35.4,29.88,West,270,6.3,-999.0,36,-99.99,,,0.00,Acu-Link.com,2013-05-27 16:34:00,
2013-05-27 13:04:00,63.5,36.8,29.87,West,270,2.7,-999.0,37,-99.99,,,0.00,Acu-Link.com,2013-05-27 17:04:00,
2013-05-27 13:29:00,63.5,35.4,29.87,NE,45,2.7,-999.0,35,-99.99,,,0.00,Acu-Link.com,2013-05-27 17:29:00,
2013-05-27 13:49:00,64.2,36.7,29.90,WSW,247,4.2,-999.0,36,-99.99,,,0.00,Acu-Link.com,2013-05-27 17:49:00,
2013-05-27 14:07:00,64.8,36.5,29.86,WNW,292,2.7,-999.0,35,-99.99,,,0.00,Acu-Link.com,2013-05-27 18:07:00,
2013-05-27 14:23:00,64.8,37.2,29.89,NNW,337,3.7,-999.0,36,-99.99,,,0.00,Acu-Link.com,2013-05-27 18:23:00,
2013-05-27 14:41:00,64.9,37.3,29.88,West,270,3.7,-999.0,36,-99.99,,,0.00,Acu-Link.com,2013-05-27 18:41:00,
2013-05-27 15:05:00,65.8,38.1,29.90,WNW,292,3.2,-999.0,36,-99.99,,,0.00,Acu-Link.com,2013-05-27 19:05:00,
2013-05-27 15:30:00,66.9,39.8,29.86,West,270,5.8,-999.0,37,-99.99,,,0.00,Acu-Link.com,2013-05-27 19:30:00,
2013-05-27 15:46:00,66.4,37.2,29.86,West,270,4.2,-999.0,34,-99.99,,,0.00,Acu-Link.com,2013-05-27 19:46:00,
2013-05-27 16:01:00,66.6,34.2,29.85,WSW,247,3.2,-999.0,30,-99.99,,,0.00,Acu-Link.com,2013-05-27 20:01:00,
2013-05-27 17:37:00,65.5,34.9,29.85,WNW,292,4.7,-999.0,32,-99.99,,,0.00,Acu-Link.com,2013-05-27 21:37:00,
2013-05-27 17:53:00,65.3,33.9,29.86,ENE,67,9.9,-999.0,31,-99.99,,,0.00,Acu-Link.com,2013-05-27 21:53:00,
2013-05-27 18:08:00,64.8,31.8,29.85,South,180,1.7,-999.0,29,-99.99,,,0.00,Acu-Link.com,2013-05-27 22:08:00,
2013-05-27 18:28:00,64.6,34.1,29.86,WNW,292,5.8,-999.0,32,-99.99,,,0.00,Acu-Link.com,2013-05-27 22:28:00,
2013-05-27 18:56:00,64.4,35.4,29.86,WNW,292,3.7,-999.0,34,-99.99,,,0.00,Acu-Link.com,2013-05-27 22:56:00,
2013-05-27 19:15:00,63.5,40.0,29.91,West,270,0.0,-999.0,42,-99.99,,,0.00,Acu-Link.com,2013-05-27 23:15:00,
2013-05-27 19:35:00,62.6,39.2,29.89,NE,45,0.0,-999.0,42,-99.99,,,0.00,Acu-Link.com,2013-05-27 23:35:00,
2013-05-27 20:02:00,56.8,43.9,29.89,NNE,22,0.0,-999.0,62,-99.99,,,0.00,Acu-Link.com,2013-05-28 00:02:00,
2013-05-27 20:22:00,55.4,43.8,29.91,SSW,202,0.0,-999.0,65,-99.99,,,0.00,Acu-Link.com,2013-05-28 00:22:00,
2013-05-27 20:40:00,51.4,43.4,29.92,WSW,247,0.0,-999.0,74,-99.99,,,0.00,Acu-Link.com,2013-05-28 00:40:00,
2013-05-27 20:56:00,49.6,43.0,29.94,WSW,247,0.0,-999.0,78,-99.99,,,0.00,Acu-Link.com,2013-05-28 00:56:00,
2013-05-27 21:11:00,48.0,42.5,29.97,South,180,0.0,-999.0,81,-99.99,,,0.00,Acu-Link.com,2013-05-28 01:11:00,
2013-05-27 21:26:00,46.2,41.3,29.95,WNW,292,0.0,-999.0,83,-99.99,,,0.00,Acu-Link.com,2013-05-28 01:26:00,
2013-05-27 21:46:00,46.2,41.3,29.94,SSE,157,0.0,-999.0,83,-99.99,,,0.00,Acu-Link.com,2013-05-28 01:46:00,
2013-05-27 22:02:00,43.5,40.8,29.97,SSE,157,0.0,-999.0,90,-99.99,,,0.00,Acu-Link.com,2013-05-28 02:02:00,
2013-05-27 22:19:00,42.6,40.2,29.97,ENE,67,0.0,-999.0,91,-99.99,,,0.00,Acu-Link.com,2013-05-28 02:19:00,
2013-05-27 22:34:00,41.7,40.1,29.96,South,180,0.0,-999.0,94,-99.99,,,0.00,Acu-Link.com,2013-05-28 02:34:00,
2013-05-27 23:02:00,40.5,39.2,29.97,South,180,0.0,-999.0,95,-99.99,,,0.00,Acu-Link.com,2013-05-28 03:02:00,
2013-05-27 23:34:00,38.8,38.3,29.97,South,180,0.0,-999.0,98,-99.99,,,0.00,Acu-Link.com,2013-05-28 03:34:00,
2013-05-27 23:49:00,38.8,38.3,30.02,NW,315,0.0,-999.0,98,-99.99,,,0.00,Acu-Link.com,2013-05-28 03:49:00,